Weather History for Opa Locka, FL

Change the Weather History Date:

Thursday, January 17, 2013

  Actual Average Record
Temperature  
Mean Temperature 70 °F -  
Max Temperature 80 °F 76 °F 85 °F (1987)
Min Temperature 60 °F 55 °F 40 °F (1981)
Cooling Degree Days 5    
Growing Degree Days 20 (Base 50)    
Moisture  
Dew Point 64 °F    
Average Humidity 85    
Maximum Humidity 100    
Minimum Humidity 69    
Precipitation  
Precipitation 0.01 in - - ()
Sea Level Pressure  
Sea Level Pressure 30.06 in    
Wind  
Wind Speed 5 mph (WSW)    
Max Wind Speed 18 mph    
Max Gust Speed 28 mph    
Visibility 8 miles    
Events Rain    
Averages and records for this station are not official NWS values.
T = Trace of Precipitation, MM = Missing Value Source: NWS Daily Summary

Daily Weather History Graph

Daily Weather History Graph

Search for Another Location

Airport:

Trip Planner

Search our weather history database for the weather conditions in past years. The results will help you decide how hot, cold, wet, or windy it might be!

Date:

Astronomy

Jan. 17, 2013 Rise Set
Actual Time 7:09 AM EST 5:53 PM EST
Civil Twilight 6:44 AM EST 6:18 PM EST
Nautical Twilight 6:16 AM EST 6:46 PM EST
Astronomical Twilight 5:48 AM EST 7:14 PM EST
Moon 10:58 AM EST (1/17) 11:57 PM EST (1/17)
Length of Visible Light 11h 33m
Length of Day
10h 44m
Waxing Crescent, 37% of the Moon is Illuminated
Jan 17
Waxing Crescent
Jan 18
First Quarter
Jan 26
Full
Feb 3
Last Quarter
Feb 10
New

Hourly Weather History & Observations

Time (EST) Temp. Heat Index Dew Point Humidity Pressure Visibility Wind Dir Wind Speed Gust Speed Precip Events Conditions
12:53 AM 66.0 °F - 64.9 °F 96% 30.05 in 10.0 mi Calm Calm - N/A   Clear
1:53 AM 66.0 °F - 66.0 °F 100% 30.04 in 10.0 mi East 5.8 mph - N/A   Mostly Cloudy
2:53 AM 68.0 °F - 68.0 °F 100% 30.05 in 10.0 mi Calm Calm - N/A   Overcast
3:53 AM 64.0 °F - 64.0 °F 100% 30.04 in 10.0 mi Calm Calm - N/A   Clear
4:53 AM 63.0 °F - 63.0 °F 100% 30.04 in 10.0 mi Calm Calm - N/A   Clear
5:53 AM 62.1 °F - 62.1 °F 100% 30.05 in 10.0 mi Calm Calm - N/A   Clear
6:26 AM 62.6 °F - 62.6 °F 100% 30.05 in 1.5 mi Calm Calm - N/A   Partly Cloudy
6:33 AM 60.8 °F - 60.8 °F 100% 30.05 in 1.2 mi Calm Calm - N/A   Partly Cloudy
6:37 AM 62.6 °F - 62.6 °F 100% 30.06 in 3.0 mi Calm Calm - N/A   Partly Cloudy
6:53 AM 61.0 °F - - N/A% 30.06 in 6.0 mi Calm Calm - N/A   Haze
7:53 AM 62.1 °F - - N/A% 30.08 in 10.0 mi Calm Calm - N/A   Clear
8:53 AM 75.0 °F - 70.0 °F 84% 30.09 in 10.0 mi South 4.6 mph - N/A   Clear
9:53 AM 80.1 °F 82.9 °F 69.1 °F 69% 30.10 in 10.0 mi SSE 11.5 mph - 0.01 in   Scattered Clouds
10:53 AM 79.0 °F - 68.0 °F 69% 30.09 in 10.0 mi SSE 15.0 mph - N/A   Scattered Clouds
11:53 AM 79.0 °F - 68.0 °F 69% 30.06 in 10.0 mi South 11.5 mph - N/A   Overcast
12:22 PM 71.6 °F - 68.0 °F 88% 30.06 in 10.0 mi WSW 16.1 mph - 0.00 in Rain Light Rain
12:30 PM 71.6 °F - 68.0 °F 88% 30.06 in 5.0 mi WSW 10.4 mph - 0.00 in Rain Heavy Rain
12:53 PM 71.1 °F - 68.0 °F 90% 30.06 in 2.0 mi SW 11.5 mph - 0.00 in Rain Light Rain
1:34 PM 69.8 °F - 68.0 °F 94% 30.03 in 1.5 mi SW 9.2 mph - 0.00 in Rain Light Rain
1:53 PM 71.1 °F - 69.1 °F 93% 30.00 in 3.0 mi ESE 8.1 mph - 0.00 in   Overcast
2:53 PM 73.0 °F - 70.0 °F 90% 30.01 in 10.0 mi South 5.8 mph - N/A   Overcast
3:53 PM 75.0 °F - 68.0 °F 79% 30.01 in 10.0 mi SSW 6.9 mph - N/A   Overcast
4:53 PM 77.0 °F - 68.0 °F 74% 30.01 in 10.0 mi SSW 6.9 mph - N/A   Mostly Cloudy
5:53 PM 75.9 °F - 64.9 °F 69% 30.02 in 10.0 mi WSW 8.1 mph - N/A   Partly Cloudy
6:53 PM 73.9 °F - 64.9 °F 73% 30.04 in 10.0 mi West 11.5 mph - N/A   Mostly Cloudy
7:30 PM 71.6 °F - 64.4 °F 78% 30.07 in 10.0 mi NW 18.4 mph 27.6 mph N/A   Mostly Cloudy
7:53 PM 66.0 °F - 60.1 °F 81% 30.09 in 10.0 mi NNW 17.3 mph - N/A   Overcast
8:18 PM 66.2 °F - 59.0 °F 78% 30.09 in 10.0 mi NW 13.8 mph 24.2 mph N/A   Mostly Cloudy
8:53 PM 64.0 °F - 57.0 °F 78% 30.12 in 10.0 mi NW 12.7 mph 23.0 mph N/A   Mostly Cloudy
9:53 PM 63.0 °F - 55.0 °F 75% 30.12 in 10.0 mi NW 13.8 mph - N/A   Overcast
10:23 PM 62.6 °F - 55.4 °F 77% 30.11 in 10.0 mi NW 9.2 mph - N/A   Scattered Clouds
10:53 PM 62.1 °F - 55.0 °F 78% 30.12 in 10.0 mi NNW 10.4 mph - N/A   Clear
11:53 PM 61.0 °F - 54.0 °F 78% 30.12 in 10.0 mi NW 12.7 mph - N/A   Clear